This is the latest recevied weather packets stored in our database for station/object KI4BSX. If no packets are shown the sender has not sent any weather packets the latest 10 day(s).
| Time | Temp. | Humidity | Pressure | Rain* | Wind** | Luminosity | Snow |
|---|---|---|---|---|---|---|---|
| 1778181972 | 23.33° C | 92% | 1012.3 hPa | 0 mm | - | - | - |
| 1778181669 | 23.89° C | 93% | 1012.4 hPa | 0 mm | - | - | - |
| 1778181364 | 23.89° C | 94% | 1012.3 hPa | 0 mm | - | - | - |
| 1778181061 | 23.89° C | 95% | 1012.5 hPa | 0 mm | - | - | - |
| 1778180759 | 23.89° C | 96% | 1012.3 hPa | 0 mm | - | - | - |
| 1778180458 | 23.89° C | 97% | 1012.2 hPa | 0 mm | - | - | - |
| 1778180155 | 23.89° C | 98% | 1012.3 hPa | 0 mm | - | - | - |
| 1778179852 | 23.33° C | 98% | 1012.6 hPa | 0 mm | - | - | - |
| 1778179550 | 23.89° C | 98% | 1012.8 hPa | 0 mm | - | - | - |
| 1778179248 | 23.33° C | 99% | 1012.5 hPa | 0 mm | - | - | - |
| 1778178943 | 22.78° C | 99% | 1012.5 hPa | 0 mm | - | - | - |
| 1778178641 | 23.33° C | 99% | 1012.5 hPa | 0 mm | - | - | - |
| 1778178337 | 23.33° C | 99% | 1012.6 hPa | 0 mm | - | - | - |
| 1778178033 | 23.33° C | 99% | 1012.8 hPa | 0 mm | - | - | - |
| 1778177730 | 22.22° C | 99% | 1012.7 hPa | 0 mm | - | - | - |
| 1778177426 | 21.67° C | 99% | 1012.7 hPa | 0 mm | - | - | - |
| 1778177123 | 22.22° C | 99% | 1012.5 hPa | 0 mm | - | - | - |
| 1778176820 | 22.22° C | 99% | 1012.9 hPa | 0 mm | - | - | - |
| 1778176516 | 22.22° C | 99% | 1012.6 hPa | 0 mm | - | - | - |
| 1778176214 | 22.22° C | 99% | 1012.8 hPa | 0 mm | - | - | - |
| 1778175910 | 22.22° C | 99% | 1012.9 hPa | 0 mm | - | - | - |
| 1778175608 | 22.22° C | 99% | 1013.1 hPa | 0 mm | - | - | - |
| 1778175305 | 21.67° C | 99% | 1012.7 hPa | 0 mm | - | - | - |
| 1778175002 | 21.11° C | 99% | 1012.7 hPa | 0 mm | - | - | - |
| 1778174698 | 21.67° C | 99% | 1012.8 hPa | 0 mm | - | - | - |
* Rain latest hour (hover to see other rain measurements)
** Current wind speed in m/s (hover to see current wind gust speed)